Location: *
(55.6049°S, 142.1985°W)
Time: 15:08:53
(UTC+00:00)

NOAA 11 - Pass Details

Date: 12 May 2021
Orbit: 833 x 850 km, 98.4° (Epoch: 17 June)

Event Time Altitude Azimuth Distance (km) Brightness Sun altitude
Rises 14:26:46 0° 18° (NNE) 3,389 7.6 -23.2°
Reaches altitude 10° 14:29:07 10° 18° (NNE) 2,461 6.8 -22.9°
Maximum altitude 14:34:35 89° 295° (WNW) 855 4.1 -22.1°
Drops below altitude 10° 14:40:08 10° 196° (SSW) 2,486 6.5 -21.3°
Sets 14:42:31 0° 195° (SSW) 3,427 7.2 -21.0°
